This is the latest recevied weather packets stored in our database for station/object G1OCN-WX. If no packets are shown the sender has not sent any weather packets the latest 1 day(s).
| Time | Temp. | Humidity | Pressure | Rain* | Wind** | Luminosity | Snow |
|---|---|---|---|---|---|---|---|
| 1778048418 | 8.89° C | 85% | 1013.1 hPa | 0 mm | 4.47 m/s, 59° | - | - |
| 1778048358 | 8.89° C | 85% | 1013.1 hPa | 0 mm | 5.36 m/s, 56° | - | - |
| 1778048298 | 8.89° C | 85% | 1013 hPa | 0 mm | 5.36 m/s, 59° | - | - |
| 1778048238 | 8.89° C | 85% | 1013 hPa | 0 mm | 5.36 m/s, 70° | - | - |
| 1778048178 | 8.89° C | 85% | 1013 hPa | 0 mm | 5.36 m/s, 68° | - | - |
| 1778048118 | 8.89° C | 85% | 1013 hPa | 0 mm | 4.47 m/s, 63° | - | - |
| 1778048057 | 8.89° C | 85% | 1013 hPa | 0 mm | 4.47 m/s, 61° | - | - |
| 1778047967 | 8.89° C | 85% | 1013 hPa | 0 mm | 5.36 m/s, 60° | - | - |
| 1778047907 | 8.89° C | 85% | 1013 hPa | 0 mm | 4.47 m/s, 59° | - | - |
| 1778047847 | 8.89° C | 85% | 1013 hPa | 0 mm | 5.81 m/s, 63° | - | - |
| 1778047787 | 8.89° C | 85% | 1013 hPa | 0 mm | 5.36 m/s, 69° | - | - |
| 1778047727 | 8.89° C | 85% | 1013 hPa | 0 mm | 4.02 m/s, 66° | - | - |
| 1778047667 | 8.89° C | 85% | 1013 hPa | 0 mm | 4.02 m/s, 54° | - | - |
| 1778047607 | 8.89° C | 85% | 1013 hPa | 0 mm | 5.36 m/s, 60° | - | - |
| 1778047547 | 8.89° C | 85% | 1013 hPa | 0 mm | 5.81 m/s, 65° | - | - |
| 1778047487 | 8.89° C | 85% | 1012.9 hPa | 0 mm | 4.47 m/s, 65° | - | - |
| 1778047427 | 8.89° C | 84% | 1012.9 hPa | 0 mm | 4.47 m/s, 61° | - | - |
| 1778047367 | 8.89° C | 84% | 1013 hPa | 0 mm | 4.02 m/s, 60° | - | - |
| 1778047307 | 8.89° C | 84% | 1012.9 hPa | 0 mm | 4.47 m/s, 62° | - | - |
| 1778047247 | 8.89° C | 84% | 1012.9 hPa | 0 mm | 5.36 m/s, 63° | - | - |
| 1778047187 | 8.89° C | 84% | 1012.9 hPa | 0 mm | 6.26 m/s, 62° | - | - |
| 1778047127 | 8.89° C | 84% | 1012.9 hPa | 0 mm | 5.81 m/s, 70° | - | - |
| 1778047067 | 8.89° C | 84% | 1012.9 hPa | 0 mm | 5.81 m/s, 64° | - | - |
| 1778047006 | 8.89° C | 84% | 1012.9 hPa | 0 mm | 5.36 m/s, 60° | - | - |
| 1778046946 | 8.89° C | 84% | 1012.9 hPa | 0 mm | 4.47 m/s, 65° | - | - |
* Rain latest hour (hover to see other rain measurements)
** Current wind speed in m/s (hover to see current wind gust speed)